www.pogodaiklimat.ru

Погода и климат >> Архив погоды >> Китай >> Beijing


АРХИВ ПОГОДЫ в Beijing

Время (UTC), дата Ветер
(напр.,м/с)
 
Видим.   Явления Облачность Т
(С)
Тd
(С)
f
(%)
Тe
(С)
Тes
(С)
Комфортность P
(гПа)
Po
(гПа)
Тmin
(С)
Tmax
(С)
R
(мм)
R24
(мм)
S
(см)
21 18.07 Ю 2 2300 м дымка ?/? +26.1 +24.3 90 +36 +36 очень
душно
1002.8 1003.0
00 19.07 Ю 2 2800 м мгла 10/10 200 м
[]
+27.2 +24.7 86 +39 +39 очень
душно
1002.9 999.2
03 19.07 ЮЗ 2 3800 м мгла 9/9 1000 м
[]
+29.7 +24.3 73 +42 +43 опасность
перегрева
1002.4 1002.0
06 19.07 ЮЗ 2 н/о мгла 9/9 1000 м
[]
+32.1 +24.2 63 +44 +46 опасность
перегрева
1000.7 997.1 +26.0
09 19.07 Ю 2 н/о мгла 9/9 1000 м
[]
+32.4 +24.4 63 +45 +46 опасность
перегрева
999.7 1000.0
12 19.07 Ю 2 6000 м мгла 9/9 1000 м
[]
+30.8 +24.2 68 +43 +43 опасность
перегрева
1000.2 996.6
15 19.07 Ю 2 4700 м мгла ?/? +29.8 +24.7 74 +42 +42 опасность
перегрева
1001.5 1002.0
18 19.07 Ю 1 3800 м мгла н/о +28.2 +24.6 81 +40 +40 очень
душно
1001.2 997.6 +32.7
21 19.07 З 1 2600 м мгла ?/? +27.0 +24.5 86 +38 +38 очень
душно
1000.8 1001.0
00 20.07 Ю 1 2000 м мгла 9/9
[]
+29.4 +25.2 78 +43 +43 опасность
перегрева
1001.2 997.6
03 20.07 Ю 2 2500 м мгла 10/10 300 м
[]
+31.4 +26.0 73 +47 +47 опасность
перегрева
1000.5 1001.0
06 20.07 Ю 1 3400 м мгла 9/9 600 м
[]
+34.0 +27.0 67 +52 +54 опасность
перегрева
998.4 994.8 +26.8
09 20.07 Ю 1 н/о мгла 10/10 1000 м
[]
+34.0 +26.7 66 +51 +51 опасность
перегрева
998.3 998.0
12 20.07 штиль 0 4400 м мгла 10/10 1000 м
[]
+32.9 +26.5 69 +50 +50 опасность
перегрева
999.4 995.8
15 20.07 СВ 2 1600 м мгла ?/? +30.7 +27.5 83 +49 +49 опасность
перегрева
1001.0 1001.0
18 20.07 С 3 16 км в посл. час дождь {морось} н/о +25.5 +23.9 91 +35 +35 очень
душно
1001.4 997.8 +34.7 11
21 20.07 СВ 3 6000 м дымка ?/? +26.1 +24.7 92 +37 +37 очень
душно
1002.5 1003.0
00 21.07 В 5 12 км 10/10 300 м
[]
+25.2 +22.5 85 +33 +33 очень
душно
1006.5 1002.8 11
03 21.07 В 2 9000 м в посл. час дождь 10/10 600 м
[]
+21.8 +19.7 88 +27 +27 душно 1009.3 1009.0
06 21.07 В 2 4400 м слабый дождь 10/10 200 м
[]
+21.8 +20.8 94 +28 +28 душно 1009.5 1005.8 +21.2 3
09 21.07 В 2 6000 м в посл. час дождь 10/10 200 м
[]
+21.4 +19.9 91 +26 +26 душно 1009.8 1010.0
12 21.07 В 2 21 км {дождь} 10/10 1000 м
[]
+21.6 +19.0 85 +26 +26 душно 1010.5 1006.7 0.1
15 21.07 З 1 17 км ?/? +22.0 +18.8 82 +27 +27 душно 1011.3 1011.0
18 21.07 З 1 15 км н/о +22.0 +18.2 79 +27 +27 душно 1010.3 1006.5 +26.3
21 21.07 Ю 1 15 км ?/? +22.6 +18.8 79 +28 +28 душно 1009.7 1010.0
00 22.07 С 1 17 км 10/10 1000 м
[]
+23.7 +18.8 74 +28 +28 душно 1009.8 1006.0
03 22.07 З 2 16 км 10/10 1000 м
[]
+25.9 +19.5 68 +31 +31 очень
душно
1010.3 1010.0
06 22.07 В 2 17 км 9/9 1500 м
[]
+27.6 +19.7 62 +33 +35 очень
душно
1009.3 1005.6 +21.4
09 22.07 ЮВ 2 21 км 9/9 1500 м
[]
+27.6 +19.1 60 +33 +33 очень
душно
1007.8 1008.0
12 22.07 СВ 1 17 км 10/10 1000 м
[]
+26.6 +20.0 67 +33 +33 очень
душно
1009.0 1005.3
15 22.07 В 1 15 км ?/? +25.7 +20.3 72 +32 +32 очень
душно
1009.0 1009.0
18 22.07 В 1 15 км н/о +25.2 +20.0 73 +31 +31 очень
душно
1007.1 1003.4 +28.2
21 22.07 ЮЗ 1 10 км ?/? +24.8 +21.1 80 +31 +31 очень
душно
1006.3 1006.0
00 23.07 ЮЗ 1 6000 м мгла 10/10 1500 м
[]
+25.4 +21.3 78 +32 +32 очень
душно
1006.3 1002.6
03 23.07 Ю 1 4900 м мгла 9/9 1000 м
[]
+26.9 +21.2 71 +34 +36 очень
душно
1005.7 1006.0
06 23.07 В 1 4500 м мгла {ливн. осадки} 10/10 1000 м
[]
+27.2 +21.3 70 +34 +34 очень
душно
1004.9 1001.2 +24.7
09 23.07 Ю 1 3900 м мгла 9/9
[]
+28.0 +21.3 67 +35 +36 очень
душно
1003.7 1004.0
12 23.07 Ю 2 3000 м мгла 9/9
[]
+27.2 +22.6 76 +36 +36 очень
душно
1004.1 1000.4
15 23.07 ЮЗ 1 2200 м мгла ?/? +26.3 +22.6 80 +35 +35 очень
душно
1004.2 1004.0
18 23.07 ЮЗ 1 2300 м мгла н/о +25.6 +22.9 85 +34 +34 очень
душно
1003.3 999.6 +28.5
21 23.07 В 2 1700 м мгла ?/? +25.4 +23.3 88 +34 +34 очень
душно
1002.9 1003.0
00 24.07 ЮЗ 1 4300 м мгла 10/10
[]
+26.5 +22.8 80 +35 +35 очень
душно
1004.4 1000.7
03 24.07 С 2 3800 м мгла 10/10 1500 м
[]
+29.0 +23.0 70 +39 +39 очень
душно
1005.1 1005.0
06 24.07 СВ 3 19 км 10/10 1500 м
[]
+29.6 +23.3 69 +40 +40 очень
душно
1004.0 1000.3 +25.3
09 24.07 С 2 23 км 10/10 1500 м
[]
+29.4 +23.1 69 +39 +39 очень
душно
1004.7 1005.0
12 24.07 СВ 1 21 км 9/9 1500 м
[]
+27.8 +22.7 74 +37 +37 очень
душно
1006.3 1002.6
15 24.07 СВ 1 19 км ?/? +27.1 +22.5 76 +36 +36 очень
душно
1007.3 1007.0
18 24.07 В 1 22 км н/о +25.8 +22.1 80 +33 +33 очень
душно
1007.2 1003.5 +30.3
21 24.07 В 1 26 км ?/? +25.4 +21.9 81 +33 +33 очень
душно
1008.3 1008.0
00 25.07 ЮЗ 1 19 км 9/9 1500 м
[]
+27.4 +22.1 73 +36 +36 очень
душно
1009.1 1005.4
03 25.07 З 2 7000 м 9/9 1500 м
[]
+28.2 +22.0 69 +36 +38 очень
душно
1009.6 1010.0
06 25.07 Ю 1 6000 м мгла 9/9 1500 м
[]
+28.0 +21.1 66 +35 +37 очень
душно
1008.3 1004.6 +25.3
09 25.07 З 3 15 км 9/9
[]
+29.1 +19.1 55 +35 +35 очень
душно
1008.1 1008.0
12 25.07 З 1 13 км 9/9
[]
+27.8 +18.5 57 +33 +33 очень
душно
1007.8 1004.1
15 25.07 Ю 1 8000 м ?/? +25.8 +19.7 69 +31 +31 очень
душно
1007.5 1008.0
18 25.07 З 1 6000 м мгла н/о +25.2 +19.8 72 +31 +31 очень
душно
1007.0 1003.3 +30.3

 

Местоположение метеостанции Beijing (Китай): широта 39.93 долгота 116.28 высота над уровнем моря 55 м.

В архиве по умолчанию представлена погода в Beijing за последнюю неделю. Архивные данные за месяц целиком и за предыдущие месяцы, начиная с января 2011 года, Вы можете получить, выбрав интересующий диапазон дат из раскрывающегося списка и нажав кнопку "Ввод!".

Внимание! Время в таблицах - всемирное. Для получения местного времени необходимо прибавить поправку, которая в Beijing равна 8 ч.

Смотрите также архив погоды в соседних городах и на ближайших метеорологических станциях:

Погода в Huailai (Китай) (84 км)
Погода в Tianjin (Китай) (119 км)
Погода в Baoding (Китай) (135 км)
Погода в Fengning (Китай) (146 км)
Погода в Yu Xian (Китай) (147 км)
Погода в Zhangjiakou (Китай) (152 км)
Погода в Tangshan (Китай) (162 км)
Погода в Chengde (Китай) (183 км)
Погода в Potou (Китай) (207 км)
Погода в Leting (Китай) (231 км)

Пояснения к столбцам:

Ветер - указаны скорость ветра в м/с - средняя за 10 мин, порывы в срок и между сроками (в фигурных скобках) и направление, откуда дует ветер: С - северный, СВ - северо-восточный, В - восточный, ЮВ - юго-восточный, Ю - южный, ЮЗ - юго-западный, З - западный, СЗ - северо-западный.
Видимость - горизонтальная дальность видимости в метрах или километрах. При видимости от 1 до 10 км при отсутствии осадков обычно наблюдается дымка, при ухудшении видимости до 1 км и менее - туман. В сухую погоду видимость может ухудшаться дымом, пылью или мглою.
Явления - указаны атмосферные явления, наблюдавшиеся в срок или в последний час перед сроком; фигурными скобками обозначены явления, наблюдавшиеся между сроками (за 1-3 часа до срока); квадратными скобками обозначены град или гололедные отложения с указанием их диаметра в мм.
Облачность - указаны через наклонную черту общая и нижняя облачность в баллах и высота нижней границы облаков в метрах; квадратными скобками обозначены формы облаков: Ci - перистые, Cs - перисто-слоистые, Cc - перисто-кучевые, Ac - высококучевые, As - высокослоистые, Sc - слоисто-кучевые, Ns - слоисто-дождевые, Cu - кучевые, Cb - кучево-дождевые. Подробнее классификацию облаков см. в Атласе облаков (PDF).
T - Температура воздуха - температура, измеренная на высоте 2 м над землей.
Td - Температура точки росы - температура, при понижении до которой содержащийся в воздухе водяной пар достигнет насыщения.
f - Относительная влажность воздуха - влажноcть воздуха, измеренная на высоте 2 м над землей.
Te - Эффективная температура - температура, которую ощущает одетый по сезону человек в тени. Характеристика душности погоды. При расчете учитывается влияние влажности воздуха и скорости ветра на теплоощущения человека.
Tes - Эффективная температура на солнце - температура, которую ощущает человек, с поправкой на солнечный нагрев. Характеристика знойности погоды. Зависит от высоты солнца над горизонтом, облачности и скорости ветра. Ночью, в пасмурную погоду, а также при ветре 12 м/с и более поправка равна нулю.
P - Атмосферное давление - приведенное к уровню моря атмосферное давление.
Po - Атмосферное давление - измеренное на уровне метеостанции атмосферное давление.
Tmin - Минимальная температура - минимум температуры воздуха на высоте 2 м над землей.
Tmax - Максимальная температура - максимум температуры воздуха на высоте 2 м над землей.
R - Количество осадков - Количество выпавших осадков за период времени, мм. При наведении курсора мыши на число - период времени, за который выпало указанное количество осадков.
R24 - Количество осадков - Количество выпавших осадков за 24 часа, мм.
S - Снежный покров - Высота снежного покрова, см. При наведении курсора мыши на число - состояние снежного покрова и степень покрытия местности в баллах.